Location: Baumgarten
(49.0970°N, 12.7493°E)
Time: 19:07:26
(UTC+00:00)

COSMOS 2428 - Pass Details

Date: 05 July 2020
Orbit: 844 x 859 km, 70.9° (Epoch: 12 August)

Event Time Altitude Azimuth Distance (km) Brightness Sun altitude
Rises 21:58:29 0° 226° (SW) 3,393 5.6 -16.3°
Reaches altitude 10° 22:01:01 10° 233° (SW) 2,462 4.9 -16.4°
Maximum altitude 22:06:27 47° 306° (NW) 1,113 3.7 -16.7°
Drops below altitude 10° 22:11:56 10° 20° (NNE) 2,480 5.9 -16.9°
Sets 22:14:31 0° 27° (NNE) 3,420 6.7 -17.0°
